Location: Norton
(51.3000°N, 0.8167°E)
Time: 03:04:35
(UTC+00:00)

Meteor 1-19 Rocket - Pass Details

Date: 03 March 2021
Orbit: 807 x 928 km, 81.2° (Epoch: 13 April)

Event Time Altitude Azimuth Distance (km) Brightness Sun altitude
Rises 18:39:31 0° 346° (NNW) 3,576 7.7 -9.9°
Reaches altitude 10° 18:42:02 10° 346° (NNW) 2,619 7.0 -10.3°
Maximum altitude 18:48:02 85° 260° (W) 910 4.4 -11.2°
Drops below altitude 10° 18:53:49 10° 172° (S) 2,529 6.6 -12.1°
Sets 18:56:12 0° 172° (S) 3,445 7.2 -12.5°
